| time (UTC) | temp C | wind direction | speed KPH | gust KPH | rain 1hr cm | rain 24hr cm | rain mn cm | humidity % | barometer mb |
| 20260508083304 | 17 | 241 | 3.2 | 8.0 | 0.00 | 0.38 | 0.00 | 77 | 1012.4 |
| 20260508082805 | 17 | 233 | 4.8 | 9.7 | 0.00 | 0.38 | 0.00 | 77 | 1012.2 |
| 20260508082306 | 17 | 251 | 3.2 | 11.3 | 0.00 | 0.38 | 0.00 | 79 | 1012.2 |
| 20260508081804 | 17 | 285 | 4.8 | 11.3 | 0.00 | 0.38 | 0.00 | 80 | 1012.1 |
| 20260508081304 | 17 | 235 | 3.2 | 8.0 | 0.00 | 0.38 | 0.00 | 81 | 1012.1 |
| 20260508080804 | 16 | 246 | 3.2 | 8.0 | 0.00 | 0.38 | 0.00 | 81 | 1012.2 |
| 20260508080304 | 16 | 259 | 3.2 | 9.7 | 0.00 | 0.38 | 0.00 | 80 | 1012.1 |
| 20260508075804 | 16 | 288 | 3.2 | 4.8 | 0.00 | 0.38 | 0.00 | 80 | 1012.2 |
| 20260508075308 | 16 | 285 | 4.8 | 8.0 | 0.00 | 0.38 | 0.00 | 80 | 1012.1 |
| 20260508074804 | 16 | 329 | 4.8 | 8.0 | 0.00 | 0.38 | 0.00 | 80 | 1012.1 |
| 20260508073804 | 16 | 277 | 8.0 | 9.7 | 0.00 | 0.38 | 0.00 | 81 | 1012.0 |
| 20260508072804 | 16 | 241 | 3.2 | 8.0 | 0.00 | 0.38 | 0.00 | 82 | 1012.2 |
| 20260508072307 | 15 | 265 | 4.8 | 8.0 | 0.00 | 0.38 | 0.00 | 82 | 1012.2 |
| 20260508065804 | 14 | 326 | 4.8 | 8.0 | 0.00 | 0.38 | 0.00 | 85 | 1012.1 |
| 20260508064804 | 14 | 315 | 4.8 | 9.7 | 0.00 | 0.38 | 0.00 | 86 | 1012.0 |
| 20260508063804 | 14 | 352 | 3.2 | 4.8 | 0.00 | 0.38 | 0.00 | 87 | 1011.9 |
| 20260508063304 | 14 | 259 | 1.6 | 4.8 | 0.00 | 0.38 | 0.00 | 87 | 1011.8 |
| 20260508062804 | 14 | 265 | 4.8 | 8.0 | 0.00 | 0.38 | 0.00 | 87 | 1011.7 |
| 20260508062306 | 13 | 291 | 3.2 | 11.3 | 0.00 | 0.38 | 0.00 | 87 | 1011.5 |
| 20260508061804 | 13 | 236 | 3.2 | 4.8 | 0.00 | 0.38 | 0.00 | 87 | 1011.7 |
| 20260508061304 | 13 | 235 | 1.6 | 4.8 | 0.00 | 0.38 | 0.00 | 88 | 1011.7 |
| 20260508060805 | 13 | 236 | 1.6 | 4.8 | 0.00 | 0.38 | 0.00 | 88 | 1011.6 |
| 20260508060304 | 13 | 236 | 3.2 | 4.8 | 0.00 | 0.38 | 0.00 | 88 | 1011.6 |
| 20260508055804 | 13 | 235 | 3.2 | 4.8 | 0.00 | 0.38 | 0.00 | 88 | 1011.5 |
| 20260508055306 | 13 | 238 | 3.2 | 4.8 | 0.00 | 0.38 | 0.00 | 88 | 1011.7 |
| 20260508054804 | 13 | 235 | 1.6 | 4.8 | 0.00 | 0.38 | 0.00 | 88 | 1011.5 |
| 20260508054305 | 13 | 235 | 3.2 | 4.8 | 0.00 | 0.38 | 0.00 | 88 | 1011.4 |
| 20260508053804 | 13 | 246 | 3.2 | 8.0 | 0.00 | 0.38 | 0.00 | 88 | 1011.3 |
| 20260508053304 | 13 | 234 | 4.8 | 9.7 | 0.00 | 0.38 | 0.00 | 88 | 1011.1 |
| 20260508052804 | 13 | 234 | 3.2 | 4.8 | 0.00 | 0.38 | 0.00 | 89 | 1011.1 |
| 20260508052307 | 13 | 238 | 3.2 | 9.7 | 0.00 | 0.38 | 0.00 | 89 | 1011.1 |
| 20260508051804 | 13 | 252 | 3.2 | 4.8 | 0.00 | 0.38 | 0.00 | 89 | 1010.9 |
| 20260508051305 | 13 | 251 | 1.6 | 4.8 | 0.00 | 0.38 | 0.00 | 89 | 1010.7 |
| 20260508050804 | 13 | 250 | 3.2 | 4.8 | 0.00 | 0.38 | 0.00 | 88 | 1010.8 |
| 20260508050304 | 13 | 258 | 3.2 | 8.0 | 0.00 | 0.38 | 0.00 | 88 | 1010.7 |
| 20260508045804 | 13 | 253 | 4.8 | 4.8 | 0.00 | 0.38 | 0.00 | 88 | 1010.7 |
| 20260508045307 | 13 | 252 | 3.2 | 4.8 | 0.00 | 0.38 | 0.00 | 88 | 1010.7 |
| 20260508044804 | 13 | 271 | 3.2 | 4.8 | 0.00 | 0.38 | 0.00 | 88 | 1010.5 |
| 20260508044305 | 13 | 251 | 3.2 | 4.8 | 0.00 | 0.38 | 0.00 | 88 | 1010.6 |
| 20260508043804 | 13 | 251 | 1.6 | 4.8 | 0.00 | 0.38 | 0.00 | 88 | 1010.6 |
| 20260508043304 | 13 | 252 | 1.6 | 4.8 | 0.00 | 0.38 | 0.00 | 88 | 1010.5 |
| 20260508042804 | 13 | 251 | 1.6 | 4.8 | 0.00 | 0.38 | 0.00 | 88 | 1010.5 |
| 20260508041804 | 13 | 237 | 1.6 | 4.8 | 0.00 | 0.38 | 0.00 | 88 | 1010.4 |
| 20260508041304 | 13 | 237 | 3.2 | 9.7 | 0.00 | 0.38 | 0.00 | 88 | 1010.5 |
| 20260508040804 | 13 | 235 | 1.6 | 8.0 | 0.00 | 0.38 | 0.00 | 88 | 1010.6 |
| 20260508035804 | 13 | 244 | 3.2 | 4.8 | 0.00 | 0.38 | 0.00 | 88 | 1010.5 |
| 20260508035306 | 13 | 244 | 1.6 | 4.8 | 0.00 | 0.38 | 0.00 | 88 | 1010.5 |
| 20260508034804 | 13 | 244 | 3.2 | 4.8 | 0.00 | 0.38 | 0.00 | 88 | 1010.5 |
| 20260508034304 | 13 | 244 | 3.2 | 4.8 | 0.00 | 0.38 | 0.00 | 87 | 1010.5 |
| 20260508033804 | 13 | 244 | 1.6 | 4.8 | 0.00 | 0.38 | 0.00 | 87 | 1010.5 |
| 20260508031804 | 13 | 244 | 3.2 | 4.8 | 0.00 | 0.38 | 0.00 | 88 | 1010.5 |
| 20260508031304 | 13 | 244 | 1.6 | 3.2 | 0.00 | 0.38 | 0.00 | 88 | 1010.6 |
| 20260508030804 | 13 | 244 | 3.2 | 4.8 | 0.00 | 0.38 | 0.00 | 88 | 1010.7 |
| 20260508030304 | 13 | 244 | 0.0 | 3.2 | 0.00 | 0.38 | 0.00 | 88 | 1010.7 |
| 20260508025804 | 13 | 244 | 0.0 | 4.8 | 0.00 | 0.38 | 0.00 | 88 | 1010.7 |
| 20260508024804 | 13 | 244 | 1.6 | 8.0 | 0.00 | 0.38 | 0.00 | 88 | 1010.8 |
| 20260508023804 | 13 | 244 | 1.6 | 4.8 | 0.00 | 0.38 | 0.00 | 88 | 1011.0 |
| 20260508023304 | 13 | 244 | 1.6 | 4.8 | 0.00 | 0.38 | 0.00 | 88 | 1011.0 |
| 20260508022804 | 13 | 244 | 1.6 | 4.8 | 0.00 | 0.38 | 0.00 | 88 | 1011.0 |
| 20260508022307 | 13 | 244 | 1.6 | 4.8 | 0.00 | 0.38 | 0.00 | 88 | 1010.9 |
| 20260508021804 | 13 | 244 | 1.6 | 4.8 | 0.00 | 0.38 | 0.00 | 88 | 1010.9 |
| 20260508021304 | 13 | 244 | 1.6 | 4.8 | 0.00 | 0.38 | 0.00 | 88 | 1011.0 |
| 20260508020804 | 13 | 244 | 0.0 | 3.2 | 0.00 | 0.38 | 0.00 | 88 | 1010.9 |
| 20260508020304 | 13 | 244 | 1.6 | 4.8 | 0.00 | 0.38 | 0.00 | 88 | 1010.8 |
| 20260508015804 | 13 | 244 | 0.0 | 1.6 | 0.00 | 0.38 | 0.00 | 88 | 1010.8 |
| 20260508014804 | 13 | 243 | 0.0 | 3.2 | 0.00 | 0.38 | 0.00 | 88 | 1010.8 |
| 20260508014304 | 13 | 243 | 3.2 | 8.0 | 0.00 | 0.38 | 0.00 | 88 | 1011.0 |
| 20260508013304 | 13 | 244 | 1.6 | 4.8 | 0.00 | 0.38 | 0.00 | 88 | 1011.2 |
| 20260508012805 | 13 | 244 | 0.0 | 4.8 | 0.00 | 0.38 | 0.00 | 88 | 1011.2 |
| 20260508011304 | 13 | 244 | 1.6 | 4.8 | 0.00 | 0.38 | 0.00 | 88 | 1011.4 |
| 20260508010804 | 14 | 254 | 3.2 | 4.8 | 0.00 | 0.38 | 0.00 | 88 | 1011.5 |
| 20260508010304 | 14 | 244 | 1.6 | 4.8 | 0.00 | 0.38 | 0.00 | 88 | 1011.6 |
| 20260508005804 | 14 | 243 | 1.6 | 4.8 | 0.00 | 0.38 | 0.00 | 87 | 1011.7 |
| 20260508005306 | 14 | 244 | 0.0 | 4.8 | 0.00 | 0.38 | 0.00 | 87 | 1011.6 |
| 20260508004804 | 14 | 243 | 1.6 | 4.8 | 0.00 | 0.38 | 0.00 | 87 | 1011.6 |
| 20260508004304 | 14 | 243 | 1.6 | 4.8 | 0.00 | 0.38 | 0.00 | 87 | 1011.6 |
| 20260508003804 | 14 | 244 | 3.2 | 8.0 | 0.00 | 0.38 | 0.00 | 87 | 1011.6 |
| 20260508003304 | 14 | 246 | 3.2 | 8.0 | 0.00 | 0.38 | 0.00 | 87 | 1011.6 |
| 20260508002306 | 14 | 243 | 1.6 | 8.0 | 0.00 | 0.38 | 0.00 | 87 | 1011.7 |
| 20260508001804 | 14 | 243 | 1.6 | 4.8 | 0.00 | 0.38 | 0.00 | 87 | 1011.8 |
| 20260508001304 | 14 | 243 | 3.2 | 4.8 | 0.00 | 0.38 | 0.00 | 87 | 1011.9 |
| 20260508000804 | 14 | 243 | 1.6 | 8.0 | 0.00 | 0.38 | 0.00 | 87 | 1011.9 |
| 20260508000305 | 14 | 243 | 1.6 | 4.8 | 0.00 | 0.38 | 0.00 | 88 | 1012.0 |
| 20260507235803 | 14 | 244 | 0.0 | 3.2 | 0.00 | 0.38 | 0.00 | 88 | 1012.0 |
| 20260507235306 | 14 | 243 | 1.6 | 4.8 | 0.00 | 0.38 | 0.00 | 88 | 1011.9 |
| 20260507234804 | 14 | 243 | 1.6 | 4.8 | 0.00 | 0.38 | 0.00 | 88 | 1012.0 |
| 20260507234304 | 14 | 243 | 3.2 | 4.8 | 0.00 | 0.38 | 0.00 | 88 | 1012.0 |
| 20260507233804 | 14 | 243 | 3.2 | 8.0 | 0.00 | 0.38 | 0.00 | 88 | 1012.1 |
| 20260507233304 | 14 | 243 | 3.2 | 8.0 | 0.00 | 0.38 | 0.00 | 89 | 1012.1 |
| 20260507232804 | 14 | 244 | 3.2 | 8.0 | 0.00 | 0.38 | 0.00 | 89 | 1012.1 |
| 20260507232306 | 14 | 243 | 3.2 | 4.8 | 0.00 | 0.38 | 0.00 | 88 | 1012.2 |
| 20260507231804 | 14 | 249 | 3.2 | 4.8 | 0.00 | 0.38 | 0.00 | 89 | 1012.2 |
| 20260507231304 | 14 | 243 | 3.2 | 8.0 | 0.00 | 0.38 | 0.00 | 89 | 1012.3 |
| 20260507230804 | 14 | 257 | 4.8 | 8.0 | 0.00 | 0.38 | 0.00 | 89 | 1012.3 |
| 20260507230304 | 14 | 244 | 0.0 | 8.0 | 0.00 | 0.38 | 0.00 | 89 | 1012.4 |
| 20260507225804 | 14 | 244 | 3.2 | 8.0 | 0.00 | 0.38 | 0.00 | 88 | 1012.2 |
| 20260507224304 | 14 | 293 | 3.2 | 11.3 | 0.00 | 0.38 | 0.00 | 88 | 1012.2 |
| 20260507223803 | 14 | 274 | 3.2 | 9.7 | 0.00 | 0.38 | 0.00 | 88 | 1012.2 |
| 20260507223304 | 14 | 313 | 4.8 | 11.3 | 0.00 | 0.38 | 0.00 | 88 | 1012.2 |
| 20260507222803 | 14 | 279 | 3.2 | 11.3 | 0.00 | 0.38 | 0.00 | 88 | 1012.1 |
| 20260507222306 | 14 | 257 | 1.6 | 9.7 | 0.00 | 0.38 | 0.00 | 88 | 1012.1 |
| 20260507221304 | 14 | 254 | 3.2 | 11.3 | 0.00 | 0.38 | 0.00 | 88 | 1012.1 |
| 20260507220305 | 14 | 252 | 4.8 | 9.7 | 0.00 | 0.38 | 0.00 | 88 | 1012.2 |
| 20260507215804 | 14 | 229 | 3.2 | 9.7 | 0.00 | 0.38 | 0.38 | 88 | 1012.1 |
| 20260507215306 | 14 | 244 | 3.2 | 12.9 | 0.00 | 0.38 | 0.38 | 88 | 1012.1 |
| 20260507214805 | 14 | 233 | 3.2 | 8.0 | 0.00 | 0.38 | 0.38 | 88 | 1012.2 |
| 20260507213804 | 14 | 238 | 3.2 | 8.0 | 0.00 | 0.38 | 0.38 | 88 | 1012.1 |
| 20260507213304 | 14 | 237 | 1.6 | 4.8 | 0.00 | 0.38 | 0.38 | 88 | 1012.1 |
| 20260507212804 | 14 | 237 | 1.6 | 4.8 | 0.00 | 0.38 | 0.38 | 88 | 1012.0 |
| 20260507212307 | 14 | 237 | 1.6 | 4.8 | 0.00 | 0.38 | 0.38 | 88 | 1012.0 |
| 20260507211804 | 14 | 237 | 3.2 | 8.0 | 0.00 | 0.38 | 0.38 | 88 | 1011.8 |
| 20260507211304 | 15 | 236 | 1.6 | 3.2 | 0.00 | 0.38 | 0.38 | 88 | 1011.8 |
| 20260507210803 | 15 | 236 | 3.2 | 4.8 | 0.00 | 0.38 | 0.38 | 88 | 1011.7 |
| 20260507210304 | 15 | 236 | 3.2 | 4.8 | 0.00 | 0.38 | 0.38 | 88 | 1011.7 |
| 20260507205803 | 15 | 237 | 1.6 | 4.8 | 0.00 | 0.38 | 0.38 | 88 | 1011.7 |
| 20260507205306 | 15 | 237 | 1.6 | 9.7 | 0.00 | 0.38 | 0.38 | 88 | 1011.5 |
| 20260507204804 | 15 | 261 | 4.8 | 4.8 | 0.00 | 0.38 | 0.38 | 88 | 1011.5 |
| 20260507204304 | 15 | 281 | 0.0 | 3.2 | 0.03 | 0.38 | 0.38 | 88 | 1011.4 |
| 20260507203803 | 15 | 286 | 1.6 | 3.2 | 0.03 | 0.38 | 0.38 | 88 | 1011.4 |
| 20260507203304 | 15 | 283 | 0.0 | 3.2 | 0.03 | 0.38 | 0.38 | 88 | 1011.4 |
| 20260507202803 | 15 | 282 | 0.0 | 4.8 | 0.03 | 0.38 | 0.38 | 88 | 1011.4 |
| 20260507201804 | 15 | 286 | 1.6 | 4.8 | 0.03 | 0.38 | 0.38 | 88 | 1011.4 |
| 20260507201304 | 15 | 286 | 1.6 | 4.8 | 0.05 | 0.38 | 0.38 | 88 | 1011.4 |
| 20260507200803 | 15 | 287 | 0.0 | 1.6 | 0.05 | 0.38 | 0.38 | 88 | 1011.5 |
| 20260507200304 | 15 | 287 | 0.0 | 0.0 | 0.05 | 0.38 | 0.38 | 88 | 1011.5 |
| 20260507195804 | 15 | 287 | 0.0 | 0.0 | 0.05 | 0.38 | 0.38 | 87 | 1011.4 |
| 20260507195306 | 15 | 287 | 1.6 | 4.8 | 0.05 | 0.38 | 0.38 | 87 | 1011.4 |
| 20260507194304 | 15 | 291 | 1.6 | 3.2 | 0.03 | 0.36 | 0.36 | 87 | 1011.3 |
| 20260507193804 | 15 | 288 | 0.0 | 3.2 | 0.03 | 0.36 | 0.36 | 87 | 1011.4 |
| 20260507193303 | 15 | 288 | 3.2 | 4.8 | 0.03 | 0.36 | 0.36 | 87 | 1011.4 |
| 20260507192804 | 15 | 290 | 1.6 | 4.8 | 0.03 | 0.36 | 0.36 | 86 | 1011.4 |
| 20260507192306 | 15 | 290 | 0.0 | 4.8 | 0.03 | 0.36 | 0.36 | 86 | 1011.3 |
| 20260507191804 | 16 | 298 | 3.2 | 4.8 | 0.03 | 0.36 | 0.36 | 86 | 1011.2 |
| 20260507191304 | 16 | 310 | 4.8 | 9.7 | 0.00 | 0.33 | 0.33 | 85 | 1011.1 |
| 20260507190804 | 16 | 286 | 3.2 | 11.3 | 0.00 | 0.33 | 0.33 | 84 | 1011.1 |
| 20260507190304 | 16 | 305 | 6.4 | 12.9 | 0.00 | 0.33 | 0.33 | 83 | 1011.0 |
| 20260507185804 | 16 | 290 | 4.8 | 11.3 | 0.00 | 0.33 | 0.33 | 82 | 1011.1 |
| 20260507184803 | 16 | 298 | 8.0 | 16.1 | 0.00 | 0.33 | 0.33 | 79 | 1011.0 |
| 20260507184303 | 17 | 339 | 8.0 | 16.1 | 0.00 | 0.33 | 0.33 | 77 | 1011.0 |
| 20260507183804 | 17 | 338 | 9.7 | 19.3 | 0.00 | 0.33 | 0.33 | 75 | 1011.0 |
| 20260507183304 | 17 | 336 | 9.7 | 22.5 | 0.00 | 0.33 | 0.33 | 75 | 1011.0 |
| 20260507182803 | 18 | 340 | 9.7 | 20.9 | 0.00 | 0.33 | 0.33 | 73 | 1010.9 |
| 20260507182306 | 19 | 343 | 4.8 | 19.3 | 0.00 | 0.33 | 0.33 | 77 | 1010.7 |
| 20260507181803 | 19 | 23 | 8.0 | 14.5 | 0.00 | 0.33 | 0.33 | 76 | 1010.4 |
| 20260507181304 | 19 | 32 | 8.0 | 11.3 | 0.00 | 0.33 | 0.33 | 76 | 1010.3 |
| 20260507180803 | 19 | 42 | 8.0 | 12.9 | 0.00 | 0.33 | 0.33 | 76 | 1010.3 |
| 20260507180303 | 19 | 52 | 8.0 | 12.9 | 0.00 | 0.33 | 0.33 | 76 | 1010.3 |
| 20260507175803 | 19 | 48 | 8.0 | 14.5 | 0.00 | 0.33 | 0.33 | 76 | 1010.2 |
| 20260507175306 | 19 | 63 | 8.0 | 9.7 | 0.00 | 0.33 | 0.33 | 76 | 1010.2 |
| 20260507174305 | 20 | 61 | 4.8 | 11.3 | 0.00 | 0.33 | 0.33 | 76 | 1010.2 |
| 20260507173805 | 20 | 19 | 6.4 | 11.3 | 0.00 | 0.33 | 0.33 | 76 | 1010.1 |
| 20260507173305 | 20 | 29 | 3.2 | 11.3 | 0.00 | 0.33 | 0.33 | 75 | 1010.2 |
| 20260507172805 | 20 | 23 | 8.0 | 14.5 | 0.00 | 0.33 | 0.33 | 73 | 1010.2 |
| 20260507172307 | 20 | 34 | 6.4 | 9.7 | 0.00 | 0.33 | 0.33 | 73 | 1010.1 |
| 20260507171805 | 20 | 53 | 3.2 | 9.7 | 0.00 | 0.33 | 0.33 | 72 | 1010.0 |
| 20260507171305 | 20 | 24 | 3.2 | 9.7 | 0.00 | 0.33 | 0.33 | 72 | 1010.0 |
| 20260507170805 | 20 | 28 | 3.2 | 9.7 | 0.00 | 0.33 | 0.33 | 72 | 1010.0 |
| 20260507170305 | 20 | 51 | 1.6 | 4.8 | 0.00 | 0.33 | 0.33 | 74 | 1010.0 |
| 20260507165805 | 20 | 50 | 3.2 | 9.7 | 0.00 | 0.33 | 0.33 | 73 | 1009.9 |
| 20260507165306 | 20 | 52 | 4.8 | 8.0 | 0.00 | 0.33 | 0.33 | 72 | 1009.9 |
| 20260507164805 | 20 | 63 | 3.2 | 8.0 | 0.00 | 0.33 | 0.33 | 72 | 1009.9 |
| 20260507164305 | 20 | 35 | 4.8 | 8.0 | 0.00 | 0.33 | 0.33 | 73 | 1009.9 |
| 20260507163804 | 20 | 34 | 3.2 | 4.8 | 0.00 | 0.33 | 0.33 | 73 | 1009.9 |
| 20260507163305 | 20 | 34 | 4.8 | 8.0 | 0.00 | 0.33 | 0.33 | 74 | 1009.8 |
| 20260507162804 | 20 | 33 | 3.2 | 9.7 | 0.00 | 0.33 | 0.33 | 73 | 1009.8 |
| 20260507162307 | 20 | 19 | 4.8 | 9.7 | 0.00 | 0.33 | 0.33 | 72 | 1009.7 |
| 20260507161804 | 20 | 73 | 1.6 | 8.0 | 0.00 | 0.33 | 0.33 | 73 | 1009.7 |
| 20260507160805 | 20 | 59 | 1.6 | 4.8 | 0.00 | 0.33 | 0.33 | 73 | 1009.6 |
| 20260507160305 | 20 | 31 | 1.6 | 9.7 | 0.00 | 0.33 | 0.33 | 73 | 1009.5 |
| 20260507155805 | 20 | 22 | 6.4 | 11.3 | 0.00 | 0.33 | 0.33 | 72 | 1009.4 |
| 20260507155306 | 20 | 50 | 3.2 | 14.5 | 0.00 | 0.33 | 0.33 | 72 | 1009.3 |
| 20260507154804 | 20 | 63 | 8.0 | 14.5 | 0.00 | 0.33 | 0.33 | 71 | 1009.3 |
| 20260507154305 | 20 | 78 | 4.8 | 14.5 | 0.00 | 0.33 | 0.33 | 71 | 1009.2 |
| 20260507153804 | 20 | 64 | 4.8 | 11.3 | 0.00 | 0.33 | 0.33 | 72 | 1009.2 |
| 20260507153305 | 20 | 35 | 4.8 | 14.5 | 0.00 | 0.33 | 0.33 | 71 | 1009.2 |
| 20260507152805 | 20 | 45 | 4.8 | 12.9 | 0.00 | 0.33 | 0.33 | 71 | 1009.2 |
| 20260507152306 | 20 | 17 | 4.8 | 11.3 | 0.00 | 0.33 | 0.33 | 71 | 1009.2 |
| 20260507151804 | 20 | 69 | 3.2 | 11.3 | 0.00 | 0.33 | 0.33 | 70 | 1009.2 |
| 20260507150805 | 20 | 11 | 6.4 | 16.1 | 0.00 | 0.33 | 0.33 | 70 | 1009.3 |
| 20260507150305 | 20 | 53 | 3.2 | 12.9 | 0.00 | 0.33 | 0.33 | 71 | 1009.4 |
| 20260507145307 | 20 | 29 | 8.0 | 14.5 | 0.00 | 0.33 | 0.33 | 70 | 1009.6 |
| 20260507144804 | 20 | 63 | 6.4 | 19.3 | 0.00 | 0.33 | 0.33 | 70 | 1009.5 |
| 20260507144305 | 20 | 74 | 8.0 | 14.5 | 0.00 | 0.33 | 0.33 | 70 | 1009.6 |
| 20260507143804 | 20 | 45 | 4.8 | 16.1 | 0.00 | 0.33 | 0.33 | 68 | 1009.5 |
| 20260507143305 | 21 | 21 | 9.7 | 19.3 | 0.00 | 0.33 | 0.33 | 67 | 1009.4 |
| 20260507142804 | 21 | 81 | 9.7 | 14.5 | 0.00 | 0.33 | 0.33 | 66 | 1009.5 |
| 20260507142307 | 21 | 57 | 4.8 | 19.3 | 0.00 | 0.33 | 0.33 | 65 | 1009.6 |
| 20260507141804 | 21 | 49 | 8.0 | 19.3 | 0.00 | 0.33 | 0.33 | 63 | 1009.7 |
| 20260507141304 | 21 | 100 | 6.4 | 16.1 | 0.00 | 0.33 | 0.33 | 64 | 1009.7 |
| 20260507140805 | 21 | 84 | 3.2 | 12.9 | 0.00 | 0.33 | 0.33 | 67 | 1009.7 |
| 20260507135805 | 21 | 18 | 6.4 | 20.9 | 0.00 | 0.33 | 0.33 | 67 | 1009.7 |
| 20260507134804 | 20 | 72 | 8.0 | 16.1 | 0.00 | 0.33 | 0.33 | 71 | 1009.7 |
| 20260507133805 | 20 | 55 | 4.8 | 12.9 | 0.00 | 0.33 | 0.33 | 70 | 1009.9 |
| 20260507133304 | 20 | 89 | 6.4 | 22.5 | 0.00 | 0.33 | 0.33 | 69 | 1009.9 |
| 20260507132804 | 20 | 118 | 4.8 | 12.9 | 0.00 | 0.33 | 0.33 | 68 | 1009.9 |
| 20260507132307 | 20 | 108 | 8.0 | 19.3 | 0.00 | 0.33 | 0.33 | 69 | 1010.0 |
| 20260507131805 | 21 | 49 | 9.7 | 20.9 | 0.00 | 0.33 | 0.33 | 70 | 1009.9 |
| 20260507130804 | 20 | 40 | 6.4 | 16.1 | 0.00 | 0.33 | 0.33 | 72 | 1010.0 |
| 20260507125804 | 20 | 25 | 6.4 | 19.3 | 0.00 | 0.33 | 0.33 | 76 | 1010.2 |
| 20260507124805 | 20 | 57 | 4.8 | 19.3 | 0.00 | 0.33 | 0.33 | 75 | 1010.3 |
| 20260507124304 | 20 | 49 | 4.8 | 9.7 | 0.00 | 0.33 | 0.33 | 74 | 1010.3 |
| 20260507123805 | 20 | 64 | 3.2 | 12.9 | 0.00 | 0.33 | 0.33 | 75 | 1010.4 |
| 20260507123304 | 20 | 63 | 3.2 | 14.5 | 0.00 | 0.33 | 0.33 | 76 | 1010.5 |
| 20260507122804 | 20 | 63 | 6.4 | 16.1 | 0.00 | 0.33 | 0.33 | 76 | 1010.4 |
| 20260507122307 | 19 | 51 | 4.8 | 11.3 | 0.00 | 0.33 | 0.33 | 76 | 1010.4 |
| 20260507121805 | 20 | 27 | 4.8 | 11.3 | 0.00 | 0.33 | 0.33 | 77 | 1010.6 |
| 20260507120805 | 20 | 39 | 8.0 | 19.3 | 0.00 | 0.33 | 0.33 | 78 | 1010.6 |
| 20260507115804 | 19 | 43 | 6.4 | 14.5 | 0.00 | 0.33 | 0.33 | 79 | 1010.5 |
| 20260507115307 | 19 | 29 | 9.7 | 24.1 | 0.00 | 0.33 | 0.33 | 79 | 1010.5 |
| 20260507114804 | 19 | 30 | 8.0 | 20.9 | 0.00 | 0.33 | 0.33 | 79 | 1010.6 |
| 20260507113804 | 19 | 35 | 8.0 | 16.1 | 0.00 | 0.33 | 0.33 | 81 | 1010.8 |
| 20260507113304 | 19 | 33 | 8.0 | 16.1 | 0.00 | 0.33 | 0.33 | 81 | 1010.8 |
| 20260507112307 | 19 | 20 | 12.9 | 19.3 | 0.00 | 0.33 | 0.33 | 81 | 1011.0 |
| 20260507111304 | 19 | 8 | 9.7 | 20.9 | 0.03 | 0.33 | 0.33 | 81 | 1011.1 |
| 20260507110804 | 19 | 4 | 11.3 | 20.9 | 0.03 | 0.33 | 0.33 | 81 | 1011.2 |
| 20260507110304 | 19 | 19 | 8.0 | 14.5 | 0.03 | 0.33 | 0.33 | 81 | 1011.2 |
| 20260507105804 | 19 | 23 | 3.2 | 19.3 | 0.30 | 0.33 | 0.33 | 82 | 1011.3 |
| 20260507105306 | 19 | 24 | 6.4 | 11.3 | 0.33 | 0.33 | 0.33 | 81 | 1011.4 |
| 20260507104804 | 19 | 55 | 4.8 | 12.9 | 0.33 | 0.33 | 0.33 | 81 | 1011.3 |
| 20260507104304 | 18 | 40 | 4.8 | 11.3 | 0.33 | 0.33 | 0.33 | 81 | 1011.2 |
| 20260507103804 | 18 | 58 | 6.4 | 12.9 | 0.33 | 0.33 | 0.33 | 81 | 1011.1 |
| 20260507102306 | 18 | 75 | 3.2 | 8.0 | 0.33 | 0.33 | 0.33 | 82 | 1011.2 |
| 20260507101804 | 18 | 62 | 4.8 | 14.5 | 0.30 | 0.30 | 0.30 | 83 | 1011.2 |
| 20260507101305 | 18 | 32 | 9.7 | 19.3 | 0.30 | 0.30 | 0.30 | 81 | 1011.1 |
| 20260507100805 | 18 | 38 | 6.4 | 12.9 | 0.30 | 0.30 | 0.30 | 79 | 1011.0 |
| 20260507100305 | 19 | 27 | 8.0 | 19.3 | 0.30 | 0.30 | 0.30 | 74 | 1011.0 |
| 20260507095804 | 20 | 67 | 9.7 | 25.7 | 0.03 | 0.03 | 0.03 | 72 | 1011.3 |
| 20260507095306 | 20 | 117 | 8.0 | 16.1 | 0.00 | 0.00 | 0.00 | 70 | 1011.2 |
| 20260507094805 | 20 | 87 | 4.8 | 14.5 | 0.00 | 0.00 | 0.00 | 69 | 1011.2 |
| 20260507094304 | 21 | 72 | 3.2 | 4.8 | 0.00 | 0.00 | 0.00 | 69 | 1011.3 |
| 20260507093304 | 21 | 31 | 6.4 | 14.5 | 0.00 | 0.00 | 0.00 | 67 | 1011.3 |
| 20260507092805 | 20 | 105 | 8.0 | 11.3 | 0.00 | 0.00 | 0.00 | 67 | 1011.3 |
| 20260507091804 | 20 | 110 | 8.0 | 14.5 | 0.00 | 0.00 | 0.00 | 70 | 1011.4 |
| 20260507091304 | 20 | 79 | 6.4 | 12.9 | 0.00 | 0.00 | 0.00 | 70 | 1011.4 |
| 20260507090804 | 20 | 49 | 3.2 | 11.3 | 0.00 | 0.00 | 0.00 | 70 | 1011.3 |
| 20260507090304 | 19 | 28 | 4.8 | 8.0 | 0.00 | 0.00 | 0.00 | 70 | 1011.3 |
| 20260507085804 | 19 | 302 | 4.8 | 9.7 | 0.00 | 0.00 | 0.00 | 69 | 1011.3 |
| 20260507085306 | 19 | 26 | 6.4 | 11.3 | 0.00 | 0.00 | 0.00 | 69 | 1011.3 |
| 20260507084804 | 19 | 2 | 3.2 | 11.3 | 0.00 | 0.00 | 0.00 | 68 | 1011.3 |
| 20260507084304 | 19 | 346 | 4.8 | 19.3 | 0.00 | 0.00 | 0.00 | 67 | 1011.3 |
| 20260507083805 | 19 | 318 | 8.0 | 14.5 | 0.00 | 0.00 | 0.00 | 67 | 1011.3 |